Location: Makakahi
(40.6833°S, 175.6000°E)
Time: 00:38:02
(UTC+00:00)

FENGYUN 1C DEB - Pass Details

Date: 09 December 2024
Orbit: 841 x 907 km, 98.9° (Epoch: 11 January)

Event Time Altitude Azimuth Distance (km) Brightness Sun altitude
Rises 09:40:01 0° 171° (S) 3,504 ? -17.5°
Reaches altitude 10° 09:42:28 10° 174° (S) 2,549 ? -17.8°
Maximum altitude 09:48:01 59° 251° (WSW) 997 ? -18.4°
Drops below altitude 10° 09:53:25 10° 330° (NNW) 2,481 ? -18.9°
Enters shadow 09:54:09 - 331° (NNW) 2,764 ? -19.0°
